Regional Weather Roundup
Issued by NWS

Home | Current Version | Previous Version | Text Only | Print | Product List | Glossary On
Versions: 1 2 3 4 5 6 7 8 9 10 11 12 13 14 15 16 17 18 19 20 21 22 23 24 25 26 27 28 29 30 31 32 33 34 35 36 37 38 39 40 41 42 43 44 45 46 47 48 49 50
000
ASUS43 KDTX 281710
RWRMI
MICHIGAN HOURLY REGIONAL WEATHER ROUNDUP
NATIONAL WEATHER SERVICE DETROIT/PONTIAC MI
100 PM EDT THU MAY 28 2015

NOTE: "FAIR" INDICATES FEW OR NO CLOUDS BELOW 12,000 FEET WITH NO
SIGNIFICANT WEATHER AND/OR OBSTRUCTION TO VISIBILITY.

MIZ047>049-052>055-059>063-066>070-074>076-081>083-281800-
SOUTHEAST LOWER MICHIGAN

CITY           SKY/WX    TMP DP  RH WIND       PRES   REMARKS
ADRIAN         SUNNY     75  56  51 S8        30.27F
ALMA           MOSUNNY   78  61  55 SW7       30.23F
ANN ARBOR      SUNNY     75  57  53 VRB3      30.27S
BAD AXE        SUNNY     76  55  47 SW7       30.25S
CARO           SUNNY     78  59  51 S5        30.24R
DETROIT CITY   SUNNY     74  58  57 VRB7      30.27S
DETROIT        MOSUNNY   75  57  53 SE8       30.28R
FLINT          SUNNY     79  57  46 VRB5      30.26R
GROSSE ILE     SUNNY     68  61  77 S7        30.28S
HILLSDALE      SUNNY     76  53  44 SE6       30.27F
HOWELL         SUNNY     76  56  49 SW6       30.27S

CITY           SKY/WX    TMP DP  RH WIND       PRES   REMARKS
JACKSON        SUNNY     75  55  49 VRB5      30.26S
LAMBERTVILLE   SUNNY     73  55  53 E7        30.28R
LANSING        SUNNY     77  59  53 W5G16     30.25S
LAPEER         FAIR      76  53  44 SW6       30.26R
MASON          SUNNY     74  58  56 SE3       30.26S
MONROE         SUNNY     72  55  56 SE8       30.27S
MT. CLEMENS    MOSUNNY   72  55  55 S10       30.26R
PONTIAC        MOSUNNY   75  55  49 S8        30.26R
PORT HOPE        N/A     74  56  53 VRB6      30.22S
PORT HURON     SUNNY     75  59  57 S3        30.27R
TRI CITIES     SUNNY     79  60  52 SW9       30.23S
MIDLAND        FAIR      79  59  49 S6        30.21F
TROY           SUNNY     77  55  46 S6        30.28S
SAGINAW HB     SUNNY     79  55  44 SW8       30.23S
$$
MIZ043>046-050>051-056>058-064>065-071>073-077>080-281800-
SOUTHWEST LOWER MICHIGAN

CITY           SKY/WX    TMP DP  RH WIND       PRES   REMARKS
BATTLE CREEK   SUNNY     77  57  50 VRB6      30.26S
BENTON HARBOR  SUNNY     77  58  51 SE10      30.23F
BIG RAPIDS     SUNNY     78  51  37 CALM      30.21S
COLDWATER      SUNNY     74  54  48 SE5       30.27R
FREMONT        FAIR      75  56  51 SW12      30.22S HAZE
HOLLAND        SUNNY     74  58  57 W13       30.25F
GRAND RAPIDS   MOSUNNY   78  60  53 SW7       30.23F
IONIA          FAIR      78  59  51 S6        30.23F
KALAMAZOO      SUNNY     77  56  48 VRB7      30.26R
LUDINGTON      SUNNY     71  60  70 SW7       30.21F
MARSHALL       SUNNY     76  55  48 SE6       30.25F
MOUNT PLEASANT SUNNY     78  59  52 CALM      30.21F
MUSKEGON       SUNNY     71  53  52 S16       30.24F
SOUTH HAVEN    MOSUNNY   75  57  52 W6        30.24S
$$
MIZ016>042-281800-
NORTHERN LOWER MICHIGAN

CITY           SKY/WX    TMP DP  RH WIND       PRES   REMARKS
ALPENA         MOSUNNY   75  58  55 E10       30.21S
BEAVER ISLAND  SUNNY     64  52  64 W6        30.20S
BELLAIRE       SUNNY     74  55  50 S3        30.20S
CADILLAC       SUNNY     79  54  42 SW5       30.20F
FRANKFORT      SUNNY     68  51  54 W9G24     30.19R
GAYLORD        SUNNY     76  55  48 VRB6      30.21R
GRAYLING       SUNNY     78  52  40 CALM      30.21F
HARBOR SPRINGS SUNNY     62  54  73 CALM      30.20S
HOUGHTON LAKE  SUNNY     76  54  46 VRB3      30.22S
MANISTEE       SUNNY     72  57  60 NW7       30.19F
OSCODA         SUNNY     76  58  53 S6        30.22S
PELLSTON       SUNNY     74  60  61 SE8       30.20R
ROGERS CITY    SUNNY     64  56  77 NE7       30.23R
TRAVERSE CITY  SUNNY     72  57  59 NE6       30.17F
$$
MIZ007>008-015-281800-
EASTERN UPPER MICHIGAN

CITY           SKY/WX    TMP DP  RH WIND       PRES   REMARKS
KINROSS        SUNNY     70  57  64 SE3       30.21R
MACKINAC ISLAN SUNNY     67  56  68 NE5       30.21R
NEWBERRY       SUNNY     68  60  74 E5        30.18F
S. S. MARIE    PTSUNNY   67  57  70 S6        30.20S
MUNISING         N/A     48  42  80 NE8       30.18F
$$
MIZ004>006-011>014-085-281800-
CENTRAL UPPER MICHIGAN

CITY           SKY/WX    TMP DP  RH WIND       PRES   REMARKS
MANISTIQUE     SUNNY     59  52  76 S8        30.19R
ESCANABA       SUNNY     61  52  72 SE12      30.16S
MENOMINEE      SUNNY     64  54  68 SE7       30.15F
SAWYER-GWINN   SUNNY     68  55  64 S10       30.16F
$$
MIZ001>003-009>011-084-281800-
WESTERN UPPER MICHIGAN

CITY           SKY/WX    TMP DP  RH WIND       PRES   REMARKS
IRON MOUNTAIN  SUNNY     72  59  63 VRB5      30.13F
HOUGHTON       CLOUDY    50  44  80 E16       30.15F
COPPER HARBOR    N/A     51  45  79 S7        30.16F
IRONWOOD       MOSUNNY   81  55  41 SW9G18    30.02F
$$

ABBREVIATIONS USED IN REMARKS
   TC - TEMPERATURE IN CELSIUS
  WCI - WIND CHILL INDEX
   HX - HEAT INDEX
  VSB - VISIBILITY



USA.gov is the U.S. government's official web portal to all federal, state and local government web resources and services.